KO4ZGL-13 Weather Reports


Display with metric or nautical units.
time (UTC)temp
F
wind
direction
speed
MPH
gust
MPH
rain 1hr
in
rain 24hr
in
rain mn
in
humidity
%
barometer
mb
20260509101338 59 314 0.0 0.0 0.00 0.00 0.00 98 1013.0
20260509100836 59 314 0.0 0.0 0.00 0.00 0.00 97 1013.3
20260509100333 59 314 0.0 0.0 0.00 0.00 0.00 97 1013.4
20260509095830 59 314 0.0 0.0 0.00 0.00 0.00 97 1013.0
20260509095327 60 314 0.0 0.0 0.00 0.00 0.00 97 1013.3
20260509094824 60 315 0.0 0.0 0.00 0.00 0.00 97 1013.2
20260509094321 60 316 0.0 0.0 0.00 0.00 0.00 97 1013.4
20260509093818 60 314 0.0 0.0 0.00 0.00 0.00 97 1013.5
20260509093315 60 315 0.0 0.0 0.00 0.00 0.00 97 1013.5
20260509092814 60 316 0.0 0.0 0.00 0.00 0.00 97 1013.4
20260509092311 60 314 0.0 0.0 0.00 0.00 0.00 97 1013.6
20260509091809 60 319 0.0 0.0 0.00 0.00 0.00 97 1013.3
20260509091306 60 320 0.0 0.0 0.00 0.00 0.00 97 1013.4
20260509090803 60 315 0.0 0.0 0.00 0.00 0.00 97 1013.5
20260509090300 60 315 0.0 0.0 0.00 0.00 0.00 97 1013.4
20260509085757 60 321 0.0 0.0 0.00 0.00 0.00 97 1013.7
20260509085255 60 316 0.0 0.0 0.00 0.00 0.00 97 1013.6
20260509084751 60 321 0.0 0.0 0.00 0.00 0.00 97 1013.4
20260509084248 60 321 0.0 0.0 0.00 0.00 0.00 97 1013.4
20260509083746 60 320 0.0 0.0 0.00 0.00 0.00 97 1013.4
20260509083242 60 316 0.0 0.0 0.00 0.00 0.00 97 1013.2
20260509082739 60 316 0.0 0.0 0.00 0.00 0.00 97 1013.1
20260509082236 60 316 0.0 0.0 0.00 0.00 0.00 96 1013.2
20260509081732 60 321 0.0 0.0 0.00 0.00 0.00 96 1013.4
20260509081230 60 315 0.0 0.0 0.00 0.00 0.00 96 1013.0
20260509080728 60 316 0.0 0.0 0.00 0.00 0.00 96 1013.4
20260509080225 61 322 0.0 0.0 0.00 0.00 0.00 96 1013.5
20260509075723 60 322 0.0 0.0 0.00 0.00 0.00 96 1013.6
20260509075221 60 322 0.0 0.0 0.00 0.00 0.00 96 1013.5
20260509074718 60 314 0.0 0.0 0.00 0.00 0.00 96 1013.9
20260509074215 61 322 0.0 0.0 0.00 0.00 0.00 96 1014.0
20260509073711 61 316 0.0 0.0 0.00 0.00 0.00 96 1013.7
20260509073208 60 320 0.0 0.0 0.00 0.00 0.00 96 1013.5
20260509072704 60 320 0.0 0.0 0.00 0.00 0.00 96 1013.6
20260509072201 60 317 0.0 0.0 0.00 0.00 0.00 96 1013.6
20260509071658 60 315 0.0 0.0 0.00 0.00 0.00 96 1013.8
20260509071155 60 316 0.0 0.0 0.00 0.00 0.00 96 1013.6
20260509070652 60 317 0.0 0.0 0.00 0.00 0.00 96 1013.8
20260509070148 60 314 0.0 0.0 0.00 0.00 0.00 95 1013.7
20260509065645 60 316 0.0 0.0 0.00 0.00 0.00 95 1013.8
20260509065141 61 315 0.0 0.0 0.00 0.00 0.00 95 1014.1
20260509064638 61 314 0.0 0.0 0.00 0.00 0.00 95 1014.3
20260509064136 61 322 0.0 0.0 0.00 0.00 0.00 95 1013.9
20260509063632 61 317 0.0 0.0 0.00 0.00 0.00 95 1014.0
20260509063129 61 316 0.0 0.0 0.00 0.00 0.00 95 1014.4
20260509062626 61 313 0.0 0.0 0.00 0.00 0.00 95 1014.5
20260509062123 61 316 0.0 0.0 0.00 0.00 0.00 95 1014.5
20260509061620 61 315 0.0 0.0 0.00 0.00 0.00 95 1014.8
20260509061117 61 316 0.0 0.0 0.00 0.00 0.00 94 1015.0
20260509060615 61 317 0.0 0.0 0.00 0.00 0.00 94 1014.8
20260509060110 61 323 0.0 0.0 0.00 0.00 0.00 94 1015.0
20260509055606 61 316 0.0 0.0 0.00 0.00 0.00 94 1014.8
20260509055102 61 324 0.0 0.0 0.00 0.00 0.00 94 1014.9
20260509054559 61 322 0.0 0.0 0.00 0.00 0.00 94 1015.0
20260509054057 61 317 0.0 0.0 0.00 0.00 0.00 94 1015.1
20260509053555 61 315 0.0 0.0 0.00 0.00 0.00 94 1015.0
20260509053052 61 317 0.0 0.0 0.00 0.00 0.00 94 1014.7
20260509052550 61 315 0.0 0.0 0.00 0.00 0.00 94 1014.6
20260509052048 62 316 0.0 0.0 0.00 0.00 0.00 93 1014.7
20260509051545 62 316 0.0 0.0 0.00 0.00 0.00 93 1015.1
20260509051042 62 317 0.0 0.0 0.00 0.00 0.00 93 1015.2
20260509050539 62 316 0.0 0.0 0.00 0.00 0.00 93 1015.4
20260509050035 62 317 0.0 0.0 0.00 0.00 0.00 93 1015.8
20260509045533 62 317 0.0 0.0 0.00 0.00 0.00 93 1015.8
20260509045029 62 317 0.0 0.0 0.00 0.00 0.00 92 1015.9
20260509044527 62 313 0.0 0.0 0.00 0.00 0.00 92 1016.2
20260509044024 62 313 0.0 0.0 0.00 0.00 0.00 92 1016.2
20260509043520 62 315 0.0 0.0 0.00 0.00 0.00 92 1016.2
20260509043016 62 320 0.0 0.0 0.00 0.00 0.00 92 1015.7
20260509042513 62 319 0.0 0.0 0.00 0.00 0.00 92 1016.1
20260509042009 62 321 0.0 0.0 0.00 0.00 0.00 92 1016.1
20260509041506 62 328 0.0 0.0 0.00 0.00 0.00 92 1016.1
20260509041004 62 321 0.0 0.0 0.00 0.00 0.00 92 1015.6
20260509040501 62 317 0.0 0.0 0.00 0.00 0.00 92 1015.5
20260509035958 62 315 0.0 0.0 0.00 0.00 0.00 92 1015.9
20260509035455 62 316 0.0 0.0 0.00 0.00 0.00 92 1016.3
20260509034951 62 315 1.0 1.0 0.00 0.00 0.00 92 1016.2
20260509034449 62 327 1.0 1.0 0.00 0.00 0.00 92 1015.8
20260509033946 62 326 0.0 0.0 0.00 0.00 0.00 92 1016.2
20260509033443 62 321 0.0 0.0 0.00 0.00 0.00 92 1016.5
20260509032940 62 324 0.0 1.0 0.00 0.00 0.00 92 1016.1
20260509032437 62 325 0.0 0.0 0.00 0.00 0.00 92 1016.2
20260509031935 62 320 0.0 0.0 0.00 0.00 0.00 92 1016.4
20260509031432 62 321 0.0 0.0 0.00 0.00 0.00 91 1016.4
20260509030929 62 320 0.0 0.0 0.00 0.00 0.00 91 1016.7
20260509030427 62 322 0.0 0.0 0.00 0.00 0.00 91 1016.6
20260509025924 62 324 0.0 0.0 0.00 0.00 0.00 91 1016.6
20260509025420 62 316 0.0 0.0 0.00 0.00 0.00 90 1016.5
20260509024915 62 316 0.0 0.0 0.00 0.00 0.00 90 1016.8
20260509024411 62 325 0.0 0.0 0.00 0.00 0.00 90 1016.8
20260509023909 63 321 0.0 0.0 0.00 0.00 0.00 90 1016.6
20260509023406 63 317 0.0 0.0 0.00 0.00 0.00 90 1016.6
20260509022902 63 317 0.0 0.0 0.00 0.00 0.00 90 1016.4
20260509022359 63 317 0.0 0.0 0.00 0.00 0.00 89 1016.6
20260509021856 63 316 0.0 0.0 0.00 0.00 0.00 89 1016.4
20260509021353 63 317 0.0 0.0 0.00 0.00 0.00 89 1016.6
20260509020851 63 316 0.0 0.0 0.00 0.00 0.00 88 1016.5
20260509020349 63 316 0.0 0.0 0.00 0.00 0.00 88 1016.4
20260509015846 63 316 0.0 0.0 0.00 0.00 0.00 88 1016.4
20260509015344 64 323 0.0 0.0 0.00 0.00 0.00 88 1016.5
20260509014840 64 328 0.0 1.0 0.00 0.00 0.00 87 1016.1
20260509014337 64 327 1.0 1.0 0.00 0.00 0.00 87 1016.2
20260509013834 64 321 0.0 0.0 0.00 0.00 0.00 87 1015.9
20260509013331 64 320 0.0 0.0 0.00 0.00 0.00 87 1016.2
20260509012827 64 319 0.0 0.0 0.00 0.00 0.00 87 1016.2
20260509012323 64 316 0.0 0.0 0.00 0.00 0.00 86 1016.1
20260509011821 64 316 0.0 0.0 0.00 0.00 0.00 86 1016.3
20260509011318 64 318 0.0 0.0 0.00 0.00 0.00 85 1016.3
20260509010816 64 317 0.0 0.0 0.00 0.00 0.00 85 1016.2
20260509010312 64 320 0.0 0.0 0.00 0.00 0.00 85 1016.0
20260509005809 64 318 0.0 0.0 0.00 0.00 0.00 84 1016.0
20260509005308 64 320 0.0 0.0 0.00 0.00 0.00 84 1015.9
20260509004802 64 325 0.0 0.0 0.00 0.00 0.00 83 1015.8
20260509004259 64 324 0.0 0.0 0.00 0.00 0.00 83 1015.8
20260509003757 65 319 0.0 0.0 0.00 0.00 0.00 83 1015.7
20260509003254 65 323 0.0 0.0 0.00 0.00 0.00 82 1015.6
20260509002751 65 321 0.0 0.0 0.00 0.00 0.00 82 1015.6
20260509002249 65 316 0.0 0.0 0.00 0.00 0.00 81 1015.4
20260509001746 66 316 0.0 0.0 0.00 0.00 0.00 81 1015.7
20260509001242 65 321 0.0 0.0 0.00 0.00 0.00 80 1015.8
20260509000740 66 317 0.0 0.0 0.00 0.00 0.00 80 1015.6
20260509000237 66 318 1.0 1.0 0.00 0.00 0.00 79 1015.3
20260508235734 66 348 1.0 1.0 0.00 0.00 0.00 78 1015.5
20260508235230 66 323 0.0 0.0 0.00 0.00 0.00 78 1015.6
20260508234728 66 325 0.0 1.0 0.00 0.00 0.00 77 1015.4
20260508234224 66 316 1.0 2.0 0.00 0.00 0.00 77 1015.2
20260508233718 66 322 0.0 0.0 0.00 0.00 0.00 76 1015.3
20260508233215 67 324 1.0 1.0 0.00 0.00 0.00 76 1015.3
20260508232713 67 324 0.0 0.0 0.00 0.00 0.00 76 1015.1
20260508232209 67 317 0.0 0.0 0.00 0.00 0.00 75 1015.2
20260508231707 67 326 0.0 1.0 0.00 0.00 0.00 75 1015.2
20260508231204 67 332 0.0 1.0 0.00 0.00 0.00 74 1015.2
20260508230701 68 334 1.0 1.0 0.00 0.00 0.00 74 1015.3
20260508230156 68 324 1.0 1.0 0.00 0.00 0.00 75 1015.3
20260508225655 68 326 1.0 1.0 0.00 0.00 0.00 75 1015.5
20260508225150 69 327 1.0 1.0 0.00 0.00 0.00 75 1015.6
20260508224649 69 321 0.0 0.0 0.00 0.00 0.00 75 1015.6
20260508224146 69 352 1.0 2.0 0.00 0.00 0.00 74 1015.5
20260508223643 69 314 0.0 0.0 0.00 0.00 0.00 74 1015.2
20260508223140 69 9 2.0 2.0 0.00 0.00 0.00 74 1015.4
20260508222638 69 343 1.0 2.0 0.00 0.00 0.00 74 1015.1
20260508222135 70 4 1.0 2.0 0.00 0.00 0.00 73 1015.3
20260508221631 70 322 0.0 0.0 0.00 0.00 0.00 74 1015.2
20260508221127 70 331 3.0 5.0 0.00 0.00 0.00 73 1015.5
20260508220624 70 346 3.0 3.0 0.00 0.00 0.00 73 1015.3
20260508220120 71 343 2.0 2.0 0.00 0.00 0.00 73 1015.3
20260508215617 71 340 2.0 2.0 0.00 0.00 0.00 72 1015.1
20260508215114 71 6 6.0 7.0 0.00 0.00 0.00 71 1015.2
20260508214611 72 318 1.0 2.0 0.00 0.00 0.00 70 1015.1
20260508214108 72 312 3.0 3.0 0.00 0.00 0.00 69 1015.0
20260508213604 73 3 3.0 3.0 0.00 0.00 0.00 68 1015.1
20260508213100 75 330 0.0 1.0 0.00 0.00 0.00 65 1014.8
20260508212557 76 303 1.0 1.0 0.00 0.00 0.00 60 1014.8
20260508212054 76 326 0.0 1.0 0.00 0.00 0.00 56 1015.1
20260508211549 76 305 1.0 1.0 0.00 0.00 0.00 54 1015.2
20260508211045 75 301 0.0 1.0 0.00 0.00 0.00 56 1015.2
20260508210542 75 309 0.0 1.0 0.00 0.00 0.00 59 1015.0
20260508210040 76 314 0.0 0.0 0.00 0.00 0.00 60 1015.1
20260508205537 75 322 0.0 0.0 0.00 0.00 0.00 59 1015.1
20260508205033 76 307 0.0 1.0 0.00 0.00 0.00 60 1014.9
20260508204530 77 321 0.0 0.0 0.00 0.00 0.00 55 1014.9
20260508204025 77 17 3.0 3.0 0.00 0.00 0.00 53 1015.1
20260508203522 76 307 0.0 0.0 0.00 0.00 0.00 54 1014.7
20260508203018 75 326 0.0 1.0 0.00 0.00 0.00 55 1015.1
20260508202515 76 355 1.0 2.0 0.00 0.00 0.00 52 1015.3
20260508202012 76 332 0.0 1.0 0.00 0.00 0.00 54 1015.3
20260508201509 76 320 0.0 1.0 0.00 0.00 0.00 55 1015.1
20260508201005 77 318 0.0 1.0 0.00 0.00 0.00 53 1015.1
20260508200502 77 321 0.0 1.0 0.00 0.00 0.00 53 1015.2
20260508195956 76 326 0.0 0.0 0.00 0.00 0.00 58 1015.2
20260508195455 76 310 0.0 0.0 0.00 0.00 0.00 60 1015.2
20260508194950 76 311 1.0 1.0 0.00 0.00 0.00 56 1015.7
20260508194448 76 323 1.0 1.0 0.00 0.00 0.00 51 1015.7
20260508193945 75 321 0.0 1.0 0.00 0.00 0.00 52 1015.9
20260508193441 75 318 0.0 0.0 0.00 0.00 0.00 55 1015.9
20260508192938 75 269 0.0 1.0 0.00 0.00 0.00 58 1016.2
20260508192435 76 19 1.0 1.0 0.00 0.00 0.00 55 1015.9
20260508191932 75 327 1.0 1.0 0.00 0.00 0.00 54 1016.0
20260508191429 74 324 0.0 1.0 0.00 0.00 0.00 53 1015.7
20260508190925 75 314 1.0 1.0 0.00 0.00 0.00 55 1015.9
20260508190423 75 151 3.0 3.0 0.00 0.00 0.00 57 1016.0
20260508185919 75 296 0.0 1.0 0.00 0.00 0.00 56 1015.9
20260508185417 75 323 0.0 0.0 0.00 0.00 0.00 53 1016.1
20260508184914 75 357 2.0 2.0 0.00 0.00 0.00 53 1016.0
20260508184411 75 331 0.0 1.0 0.00 0.00 0.00 56 1016.2
20260508183908 75 329 2.0 2.0 0.00 0.00 0.00 53 1016.6
20260508183404 76 79 1.0 2.0 0.00 0.00 0.00 55 1016.5
20260508182859 76 302 1.0 2.0 0.00 0.00 0.00 56 1016.5
20260508182356 76 316 0.0 1.0 0.00 0.00 0.00 55 1016.4
20260508181847 75 319 0.0 0.0 0.00 0.00 0.00 54 1016.5
20260508181343 75 265 0.0 1.0 0.00 0.00 0.00 56 1016.7
20260508180841 74 310 1.0 2.0 0.00 0.00 0.00 53 1016.7
20260508180337 76 354 1.0 2.0 0.00 0.00 0.00 56 1016.8
20260508175833 75 306 1.0 1.0 0.00 0.00 0.00 55 1016.8
20260508175330 75 314 0.0 0.0 0.00 0.00 0.00 55 1016.8
20260508174829 75 296 1.0 1.0 0.00 0.00 0.00 57 1017.0
20260508174326 75 317 0.0 0.0 0.00 0.00 0.00 57 1016.9
20260508173822 75 329 0.0 0.0 0.00 0.00 0.00 58 1017.0
20260508173319 75 286 0.0 1.0 0.00 0.00 0.00 54 1017.2
20260508172815 75 280 0.0 1.0 0.00 0.00 0.00 52 1016.8
20260508172312 76 22 2.0 3.0 0.00 0.00 0.00 55 1017.1
20260508171809 74 328 0.0 0.0 0.00 0.00 0.00 54 1017.1
20260508171305 76 287 1.0 2.0 0.00 0.00 0.00 57 1017.1
20260508170802 74 321 1.0 2.0 0.00 0.00 0.00 53 1017.2
20260508170300 76 283 0.0 0.0 0.00 0.00 0.00 56 1017.5
20260508165756 74 334 0.0 0.0 0.00 0.00 0.00 55 1017.5
20260508165253 74 273 0.0 1.0 0.00 0.00 0.00 54 1017.4
20260508164749 74 344 3.0 5.0 0.00 0.00 0.00 55 1017.4
20260508164246 73 273 1.0 2.0 0.00 0.00 0.00 57 1017.4
20260508163744 73 310 1.0 2.0 0.00 0.00 0.00 55 1017.5
20260508163242 72 310 1.0 1.0 0.00 0.00 0.00 58 1017.5
20260508162737 72 307 1.0 2.0 0.00 0.00 0.00 55 1017.6
20260508162234 73 309 1.0 1.0 0.00 0.00 0.00 59 1017.7
20260508161731 72 300 0.0 0.0 0.00 0.00 0.00 60 1018.0
20260508161228 72 313 2.0 2.0 0.00 0.00 0.00 56 1017.7
20260508160726 73 308 1.0 2.0 0.00 0.00 0.00 60 1017.9
20260508160225 72 299 1.0 2.0 0.00 0.00 0.00 63 1018.0
20260508155720 73 46 2.0 2.0 0.00 0.00 0.00 59 1018.3
20260508155218 72 295 1.0 2.0 0.00 0.00 0.00 61 1018.4
20260508154714 72 251 1.0 2.0 0.00 0.00 0.00 59 1018.2
20260508154212 71 9 3.0 3.0 0.00 0.00 0.00 63 1018.5
20260508153708 71 344 4.0 7.0 0.00 0.00 0.00 62 1018.5
20260508153206 71 314 0.0 1.0 0.00 0.00 0.00 63 1018.5
20260508152702 71 336 1.0 1.0 0.00 0.00 0.00 65 1018.6
20260508152158 71 305 0.0 1.0 0.00 0.00 0.00 63 1018.4
20260508151654 69 324 1.0 1.0 0.00 0.00 0.00 68 1018.6
20260508151151 68 269 1.0 1.0 0.00 0.00 0.00 67 1018.5
20260508150648 69 325 1.0 1.0 0.00 0.00 0.00 67 1018.6
20260508150145 68 322 2.0 2.0 0.00 0.00 0.00 67 1018.6
20260508145641 69 319 0.0 1.0 0.00 0.00 0.00 71 1018.5
20260508145137 68 297 0.0 0.0 0.00 0.00 0.00 68 1018.4
20260508144635 69 10 2.0 2.0 0.00 0.00 0.00 71 1018.7
20260508144132 68 312 0.0 0.0 0.00 0.00 0.00 71 1018.6
20260508143630 67 340 1.0 2.0 0.00 0.00 0.00 72 1018.6
20260508143126 68 309 1.0 2.0 0.00 0.00 0.00 69 1018.5
20260508142623 67 329 1.0 1.0 0.00 0.00 0.00 72 1018.6
20260508142119 67 304 4.0 6.0 0.00 0.00 0.00 74 1018.4
20260508141616 67 323 1.0 1.0 0.00 0.00 0.00 72 1018.2
20260508141114 67 312 1.0 2.0 0.00 0.00 0.00 70 1018.1
20260508140611 68 351 3.0 3.0 0.00 0.00 0.00 76 1018.0
20260508140108 67 319 0.0 0.0 0.00 0.00 0.00 78 1018.1
20260508135603 66 305 1.0 2.0 0.00 0.00 0.00 82 1018.0
20260508135059 66 278 1.0 2.0 0.00 0.00 0.00 78 1018.1
20260508134556 66 261 2.0 2.0 0.00 0.00 0.00 82 1018.2
20260508134053 64 313 1.0 1.0 0.00 0.00 0.00 82 1018.2
20260508133550 63 276 2.0 2.0 0.00 0.00 0.00 85 1017.7
20260508133047 63 331 1.0 1.0 0.00 0.00 0.00 86 1017.7
20260508132545 63 288 0.0 1.0 0.00 0.00 0.00 88 1017.8
20260508132041 62 328 1.0 1.0 0.00 0.00 0.00 90 1017.5
20260508131537 62 315 2.0 2.0 0.00 0.00 0.00 92 1017.8
20260508131034 62 337 1.0 1.0 0.00 0.00 0.00 93 1017.7
20260508130531 61 324 1.0 1.0 0.00 0.00 0.00 94 1017.8
20260508130027 60 310 1.0 1.0 0.00 0.00 0.00 96 1017.7
20260508125523 61 313 1.0 1.0 0.00 0.00 0.00 97 1017.5
20260508125021 60 273 1.0 2.0 0.00 0.00 0.00 98 1017.5
20260508124518 59 311 0.0 0.0 0.00 0.00 0.00 98 1017.5
20260508124015 59 320 0.0 0.0 0.00 0.00 0.00 99 1017.6
20260508123514 59 315 0.0 1.0 0.00 0.00 0.00 99 1017.4
20260508123010 59 314 0.0 0.0 0.00 0.00 0.00 99 1017.3
20260508122507 59 309 0.0 0.0 0.00 0.00 0.00 99 1017.4
20260508121958 59 322 1.0 1.0 0.00 0.00 0.00 99 1017.1
20260508121457 58 303 0.0 1.0 0.00 0.00 0.00 99 1017.0
20260508120954 58 316 0.0 0.0 0.00 0.00 0.00 99 1017.1
20260508120452 58 317 0.0 0.0 0.00 0.00 0.00 99 1017.1
20260508115950 58 322 0.0 1.0 0.00 0.00 0.00 99 1017.0
20260508115447 58 323 1.0 1.0 0.00 0.00 0.00 99 1017.0
20260508114944 58 316 0.0 0.0 0.00 0.00 0.00 99 1016.9
20260508114441 57 318 0.0 0.0 0.00 0.00 0.00 99 1016.7
20260508113937 57 324 1.0 1.0 0.00 0.00 0.00 99 1016.5
20260508113435 57 316 0.0 0.0 0.00 0.00 0.00 99 1016.6
20260508112932 57 317 0.0 0.0 0.00 0.00 0.00 99 1016.5
20260508112428 57 317 0.0 0.0 0.00 0.00 0.00 99 1016.0
20260508111925 56 318 0.0 0.0 0.00 0.00 0.00 99 1016.1
20260508111422 56 316 0.0 0.0 0.00 0.00 0.00 99 1016.2
20260508110919 56 312 0.0 0.0 0.00 0.00 0.00 99 1016.2
20260508110417 56 312 0.0 0.0 0.00 0.00 0.00 99 1016.2
20260508105916 56 317 0.0 0.0 0.00 0.00 0.00 99 1016.3
20260508105413 56 314 0.0 0.0 0.00 0.00 0.00 99 1015.8
20260508104910 56 313 0.0 0.0 0.00 0.00 0.00 99 1015.9
20260508104408 56 317 0.0 0.0 0.00 0.00 0.00 99 1015.8
20260508103904 56 317 0.0 0.0 0.00 0.00 0.00 99 1015.7
20260508103401 56 315 0.0 0.0 0.00 0.00 0.00 99 1015.6
20260508102859 56 315 0.0 0.0 0.00 0.00 0.00 99 1015.4
20260508102357 56 311 0.0 0.0 0.00 0.00 0.00 99 1015.2
20260508101854 56 313 0.0 0.0 0.00 0.00 0.00 99 1015.3